TITAN 3C TRANSTAGE DEB, 39298

Orbit data source: Space-Track

TITAN 3C TRANSTAGE DEB, 39298 is space debris originally from a launch on Thu, 26 Sep 1968 UTC launched from the Air Force Eastern Test Range (AFETR). Debris objects in space refer to the collection of defunct objects orbiting the Earth. Examples of debris include non-operational satellites, rocket bodies, and fragments generated from explosions, collisions, or faulty payload assembly.

Not visible in the next 10 days
TITAN 3C TRANSTAGE DEB details
Identifier
39298, 1968-081AJ
Orbit
Active
Last TLE update15 hours ago
Origin
Flag of USUSAF SSD (US)
ManufacturerUnknown
MissionSpacecraft
Bus & MotorUnknown
MassUnknown
Launch date (UTC)
1968-09-26 (56 years ago)
Launch vehicleUnknown
Launch site
Air Force Eastern Test Range (AFETR)
Object type
Payload
Rocket body
Debris
Shape & HBRUnknown
Radar Cross SectionRCS unknown

Expand to show TLE details & history

TLE from 15 hours ago
0 TITAN 3C TRANSTAGE DEB
1 39298U 68081AJ  24325.74518927 -.00000384  00000-0  00000-0 0  9999
2 39298   1.5127 340.1805 0154238 353.6372  99.2003  1.00130075 60547
Epoch: 2024-11-20T17:53Z
Definitive object data (Epoch: 2024-11-20T17:53:04.352Z)
Latitude1.52355°
Longitude106.22906°
Altitude35,938.35 km
Speed3.065 km/s
True Right ascension04h 58m 56s
True Declination1° 31' 19"
Sunlit
Object was in daylight at TLE epoch
Visualization TLE readout
Latitude-0.95806°
Longitude-27.56023°
Altitude35,279.113 km
Speed3.113 km/s
Apparent Right ascension19h 52m 11s
Apparent Declination-5° 54' 48"
Sunlit
Object is in daylight
Visualization observer readout
Local Sidereal Time06:10:22
Azimuth319.315° NNW
Elevation-49.021°
Doppler factor1
Orbital elements
Apogee altitude36,478.407 km
Perigee altitude35,176.467 km
Semi-major axis42,205.574 km
Eccentricity0.0154238
Inclination1.5127°
RAAN340.1805°
Arg. of periapsis353.6372°
True anomaly100.93937°
Mean anomaly99.2003°
Eccentric anomaly100.0704°
Mean motion0.25032 °/min
BSTARUnknown
Orbital period1438.18 mins
Loading maneuver chart data...

TITAN 3C TRANSTAGE DEB Visibility forecast

Observer location: undefined°, undefined

TITAN 3C TRANSTAGE DEB is not visible in the next 10 days
Span
Click to sort rows by Start time (UTC) header in descending order
Start Az.
Max El. time (UTC)
Max El. Az.
Max El.
End time (UTC)
End Az.
|